Theta_e
320 320 320 320 320 322 322 323 323 324 324 325 325 326 326 326 326 321 317 328 334 356 353 329 325 323 324 319 324 331 316 313 316 319 321 329 325 330 334 335 337 339 337 339 343
320 320 320 319 319 320 322 322 323 323 323 324 324 325 326 327 321 317 332 350 355 358 325 321 321 321 317 319 321 320 312 315 322 324 324 329 326 326 331 333 332 333 341 343 342
319 319 319 319 319 320 321 322 322 322 323 323 324 325 326 325 315 317 346 353 353 354 328 322 321 319 316 316 317 318 313 319 325 327 330 327 327 329 328 328 331 331 337 341 340
319 319 319 319 319 319 320 321 321 321 322 323 324 326 326 320 306 322 351 355 361 339 324 322 320 316 315 313 318 315 320 320 326 332 331 327 329 327 328 330 337 337 341 340 339
318 318 318 318 318 318 320 320 320 321 321 323 324 326 319 311 315 324 352 349 332 325 322 321 318 316 313 316 315 314 320 321 324 329 329 330 327 322 327 338 338 338 339 339 339
318 317 317 317 317 318 319 320 320 320 321 322 324 327 317 308 322 325 326 325 324 323 325 323 320 322 315 315 312 317 320 320 321 321 326 327 328 327 331 338 336 336 334 336 339
317 317 317 317 317 317 319 319 319 319 321 322 325 325 316 312 324 323 321 320 325 324 322 327 322 316 315 313 319 317 312 315 317 319 323 327 322 323 334 336 334 334 334 335 336
317 317 316 316 316 316 318 318 318 319 321 323 326 319 307 323 323 323 318 319 325 325 324 325 322 317 314 317 316 313 313 307 316 317 320 317 308 326 335 333 331 333 334 335 335
317 316 316 316 315 316 316 317 318 321 324 325 314 311 305 325 317 320 318 319 321 323 324 329 320 313 314 308 305 309 303 308 315 318 317 312 308 322 334 333 330 331 332 333 333
317 316 316 315 314 315 315 316 317 317 321 321 321 307 310 311 315 319 319 319 318 320 320 317 312 308 307 304 299 305 303 308 310 312 313 308 308 316 331 332 331 331 332 332 332
316 315 315 315 313 314 310 308 302 303 305 302 305 310 313 315 318 317 319 315 314 313 308 312 306 303 307 307 309 307 304 304 310 313 309 306 305 308 320 328 330 330 331 331 332
316 315 315 314 313 313 307 306 304 308 302 309 311 313 315 311 308 315 316 312 311 308 309 306 303 310 312 311 307 305 304 304 308 311 306 305 305 312 318 317 328 329 331 332 332
316 315 314 313 313 306 305 308 311 311 300 308 308 307 308 310 308 309 314 311 310 307 307 303 309 314 312 306 305 301 304 303 305 307 307 308 308 314 320 323 321 329 332 333 332
315 315 313 312 306 307 305 307 309 310 297 305 303 308 310 309 305 313 313 311 308 308 308 307 314 312 310 305 304 300 308 308 308 300 296 304 295 308 313 315 318 321 328 335 334
315 314 312 312 305 308 310 310 308 307 292 310 304 312 309 305 304 307 314 310 306 308 308 307 309 309 308 307 308 304 310 309 309 300 297 303 301 305 311 308 313 329 332 330 333
314 313 312 307 305 308 311 310 307 297 293 301 307 304 302 301 304 308 309 309 310 306 306 306 312 309 308 310 309 310 306 303 301 298 293 302 302 303 309 311 314 321 332 331 331
313 312 310 312 306 313 312 308 296 292 306 299 300 300 299 299 302 305 303 301 300 295 296 304 306 308 309 302 306 304 296 291 292 293 292 301 303 303 313 315 319 321 323 331 330
311 310 308 311 309 310 310 303 291 303 303 301 302 301 299 301 301 303 302 299 303 301 297 296 297 305 307 304 301 300 297 292 289 292 297 303 300 307 320 323 324 324 326 331 329
309 303 304 310 311 308 306 296 297 303 310 303 300 297 295 302 302 300 300 300 304 303 298 294 297 306 309 307 306 299 296 299 295 299 298 301 306 314 319 319 321 325 332 335 333
305 308 309 314 313 306 303 300 303 310 313 306 297 299 295 298 299 298 299 304 305 307 301 299 294 303 307 309 306 303 303 296 295 294 294 301 302 306 315 316 323 320 323 328 329
308 308 316 312 308 304 298 302 307 312 313 307 299 297 299 298 300 297 299 303 309 306 303 300 296 299 306 302 301 302 298 299 299 300 295 294 299 311 313 317 322 320 323 325 324
307 305 312 311 299 299 299 306 306 309 311 307 310 303 300 301 298 298 299 303 307 307 303 306 295 294 297 308 312 306 304 300 297 296 298 297 299 315 317 319 319 324 329 327 322
303 308 312 309 295 297 302 307 309 309 309 307 307 310 308 302 297 302 308 311 315 310 306 307 298 293 297 303 305 306 305 304 301 297 295 296 300 315 315 314 323 327 328 326 334
305 307 306 305 303 301 299 304 307 314 311 310 309 311 309 303 302 305 306 312 314 313 324 311 297 297 294 300 302 303 308 307 301 297 296 298 302 308 311 312 313 314 328 331 331
306 307 313 304 301 302 300 304 304 305 309 308 307 311 308 302 306 304 307 309 312 317 311 304 298 303 300 308 309 308 306 307 304 304 297 302 305 306 310 313 315 317 325 331 330
307 309 311 310 312 306 299 301 305 309 306 305 305 310 310 303 308 306 308 306 305 308 306 305 299 301 299 308 308 305 307 308 309 309 309 308 307 311 314 317 317 317 317 322 325
312 318 312 308 312 301 298 303 307 307 311 312 311 310 310 311 313 316 313 313 311 308 307 303 300 297 295 301 302 299 304 307 308 309 309 305 308 315 314 316 315 315 317 317 319
Wind_Speed
13 12 12 12 13 14 14 15 15 15 15 16 17 17 17 19 21 2 8 12 9 2 5 7 4 4 5 10 12 11 3 4 4 7 4 3 5 3 4 12 6 5 11 21 20
13 13 13 12 13 14 14 14 15 15 16 16 16 17 16 17 4 8 14 14 15 3 6 6 12 9 5 7 6 7 5 8 6 5 6 3 7 5 3 8 6 12 18 19 21
14 14 14 13 13 14 14 14 15 15 15 15 15 16 16 12 5 10 10 17 17 4 3 4 6 3 3 4 4 6 6 5 11 10 8 8 3 6 6 1 15 19 22 20 19
14 14 14 14 14 14 14 14 14 14 14 14 15 16 19 2 4 4 6 8 3 2 4 6 5 7 7 5 5 7 8 6 10 11 6 7 7 5 5 5 16 20 23 18 17
15 14 14 14 14 14 15 14 14 13 14 14 14 14 5 1 11 10 8 6 3 2 4 5 6 3 5 4 3 6 6 8 6 15 11 14 8 6 8 16 19 18 22 19 16
15 15 14 14 14 14 15 13 13 13 13 13 13 14 2 5 7 6 6 8 7 1 7 4 8 13 8 4 4 7 7 8 7 6 14 12 5 6 4 19 19 20 16 20 20
16 15 15 15 14 14 15 14 14 13 13 11 11 5 2 17 4 11 9 6 7 5 7 13 6 4 3 8 9 1 6 5 5 4 7 13 2 7 17 20 20 19 17 15 17
16 16 16 15 15 14 15 14 14 14 13 10 7 2 9 7 7 10 3 9 8 8 7 13 5 4 4 2 8 2 3 4 4 7 8 7 7 8 19 21 19 18 17 16 15
17 17 16 16 15 14 14 15 15 15 12 8 2 2 12 12 3 10 7 5 7 7 9 9 4 2 5 5 6 4 3 5 3 8 6 4 5 9 20 19 19 17 16 15 13
15 17 16 15 14 13 15 16 9 12 2 5 6 3 7 6 4 4 6 5 3 7 9 6 6 4 5 6 5 5 4 4 7 6 5 6 7 6 20 20 20 18 16 15 13
18 18 16 15 13 11 10 2 4 3 1 11 7 5 3 2 6 5 9 2 3 4 5 8 2 8 12 6 12 9 2 4 6 7 4 7 3 2 15 16 17 16 16 15 15
18 18 16 14 11 9 3 2 6 5 7 16 11 10 12 0 6 8 6 5 4 6 4 6 7 13 7 14 1 7 5 5 4 5 4 3 5 4 7 3 15 18 17 17 12
17 17 16 13 11 3 4 11 5 13 2 6 9 7 8 7 9 7 8 5 4 4 5 5 14 8 9 2 3 5 2 1 1 4 3 6 5 6 2 3 7 9 13 6 5
16 14 15 14 4 3 7 3 7 5 5 7 6 9 5 5 5 5 6 7 1 8 5 8 15 11 10 3 6 2 3 2 1 5 3 4 5 4 5 7 11 5 14 13 14
19 15 12 5 5 3 6 8 6 5 2 4 6 4 6 9 2 5 7 5 10 12 6 10 3 6 4 6 5 8 4 1 1 1 3 4 6 9 3 4 9 8 15 15 17
17 14 11 2 3 11 13 7 5 6 6 4 8 6 5 4 4 2 9 1 0 3 7 11 7 3 8 3 3 2 3 9 6 4 3 4 7 6 6 7 10 6 10 10 11
19 11 6 4 6 4 6 4 6 3 5 5 7 4 6 6 3 8 6 5 6 1 5 6 6 5 2 3 8 10 8 5 6 6 4 6 6 7 8 7 4 10 13 10 10
21 12 7 7 1 7 4 6 3 6 6 3 6 7 7 5 6 8 8 5 6 4 3 2 10 6 3 7 9 4 9 7 3 2 3 8 6 6 3 11 9 9 7 3 8
18 2 3 7 9 3 6 3 7 6 5 3 5 5 4 5 7 3 9 8 9 10 9 3 7 7 8 5 11 4 2 9 5 2 6 3 5 6 9 11 10 8 11 3 7
2 1 5 4 11 5 5 6 6 5 3 3 8 7 8 6 5 7 8 9 9 11 6 4 2 3 5 4 2 6 5 3 4 3 2 4 5 6 3 5 9 15 11 12 13
2 3 5 11 5 6 3 8 8 9 2 7 6 6 9 8 11 9 12 7 17 8 10 5 3 8 4 4 3 6 5 5 5 5 7 4 8 8 10 10 11 12 19 18 15
3 2 2 7 5 2 3 7 6 13 18 9 8 8 9 8 7 7 10 9 7 8 8 5 6 1 2 3 6 5 6 7 6 7 1 3 6 5 10 11 11 19 15 7 1
3 4 4 6 4 3 7 10 9 14 10 7 3 3 4 10 7 3 4 6 8 6 6 3 2 4 11 10 5 8 4 4 5 3 0 5 6 1 8 7 6 7 6 4 7
2 3 4 3 2 5 4 10 6 9 9 1 3 5 9 5 1 7 4 4 4 6 7 10 4 8 7 8 3 4 4 5 6 6 4 1 3 8 8 9 7 4 6 7 6
2 4 2 3 6 8 3 7 14 9 5 2 6 5 3 4 7 4 4 6 8 5 6 7 4 3 1 4 4 2 2 7 6 3 5 4 9 2 5 8 7 8 7 7 5
1 3 5 3 4 6 6 6 7 12 4 6 2 7 5 2 9 6 10 5 1 3 5 4 2 3 5 3 3 3 7 3 3 4 5 8 6 2 2 5 9 7 8 5 5
4 4 3 5 6 3 3 7 13 4 8 4 4 7 12 6 5 9 7 4 4 4 3 4 5 4 2 2 5 8 9 13 9 10 8 7 2 2 10 13 11 11 8 7 6
Wind_Direction
338 332 326 318 311 307 307 309 313 317 322 325 327 328 327 329 316 248 255 229 210 292 326 297 255 299 255 174 183 176 181 228 224 154 220 209 123 121 322 140 165 206 143 154 149
338 332 325 318 310 304 306 307 310 315 321 326 326 325 323 333 317 269 243 241 255 37 326 341 316 343 320 286 158 132 147 213 166 152 191 107 83 96 43 136 93 101 130 146 150
338 332 326 318 310 303 303 305 308 313 317 322 323 319 316 325 323 249 246 229 244 135 257 282 271 323 253 226 232 162 160 193 153 191 144 116 96 132 106 107 145 139 147 156 157
338 334 327 320 312 304 302 302 304 309 315 319 322 317 314 207 261 269 261 232 186 57 292 311 355 340 315 342 180 98 163 140 147 174 138 156 134 132 151 205 153 146 153 154 167
338 333 328 321 313 305 302 300 301 306 311 315 321 322 341 302 250 259 264 280 325 219 240 274 300 324 264 249 101 124 177 159 179 174 147 139 167 159 128 140 143 150 149 167 170
335 333 328 323 314 305 301 300 300 303 307 313 320 318 315 267 260 298 286 312 241 282 272 237 244 272 259 345 285 185 168 174 207 204 155 152 186 165 169 150 154 159 166 165 183
337 334 330 324 317 306 303 302 299 299 302 307 314 302 275 238 274 316 320 262 266 208 257 271 257 315 1 338 331 250 127 216 233 205 128 126 191 189 156 156 163 169 172 180 182
337 334 331 326 318 308 306 300 297 295 293 295 307 310 250 248 275 294 236 290 263 250 212 257 280 276 95 290 349 163 61 127 251 178 165 117 234 175 164 163 175 174 179 183 197
337 334 332 328 321 313 305 299 292 289 281 271 275 196 268 307 190 246 175 250 304 301 296 298 30 260 16 70 356 343 227 185 207 198 166 121 228 166 173 174 176 178 185 190 195
334 335 332 330 324 319 306 287 288 313 214 226 259 349 276 243 248 231 269 246 273 334 341 358 29 16 345 79 241 259 229 240 172 228 174 189 219 164 180 182 178 180 188 192 194
336 334 331 330 327 325 338 38 23 342 215 197 200 233 274 271 277 251 232 342 349 26 277 310 44 252 254 212 243 220 205 294 194 215 124 221 271 341 183 190 176 184 188 195 196
335 334 332 328 321 334 312 192 199 176 294 229 239 263 283 172 320 256 96 156 144 243 359 357 269 256 256 273 272 21 18 6 22 165 149 192 282 351 30 101 183 180 187 197 184
334 334 329 324 321 309 214 223 99 43 248 283 198 214 241 132 213 240 132 183 211 256 270 174 258 291 254 324 19 355 123 352 212 354 9 95 350 355 349 64 71 182 190 186 69
333 331 330 325 315 285 246 326 156 127 52 270 189 258 219 187 288 220 190 151 270 224 243 238 260 238 259 189 111 27 278 132 87 68 227 69 260 319 311 342 83 141 146 118 109
332 329 325 318 309 230 246 55 166 58 40 196 199 197 198 149 201 238 204 82 225 234 107 247 296 310 236 205 144 217 237 141 276 3 36 339 80 265 68 13 88 90 123 141 154
325 322 320 202 220 247 296 329 75 51 255 186 146 199 156 188 242 14 180 46 165 276 275 264 258 251 209 194 175 347 12 25 42 93 42 236 117 285 27 320 62 81 129 172 175
319 301 270 287 217 325 282 60 51 155 292 170 169 153 174 207 217 175 175 185 194 140 287 308 290 276 206 46 355 68 55 352 349 11 230 299 75 225 34 70 71 41 355 179 240
315 302 228 231 244 343 14 61 198 243 241 223 140 158 182 150 244 186 132 202 255 120 53 210 317 190 205 168 189 198 147 149 249 214 229 11 346 298 104 69 44 52 4 34 314
314 133 242 246 193 191 61 103 215 219 277 119 81 134 248 212 156 137 173 206 223 170 174 161 274 300 166 168 131 271 207 189 144 69 86 268 279 310 18 38 27 82 53 256 241
358 214 249 141 151 76 76 228 244 224 339 190 185 166 205 196 154 152 181 220 236 201 146 236 320 309 282 110 185 156 187 34 17 176 98 281 285 233 111 135 61 9 30 312 265
6 28 258 126 98 57 185 237 271 261 277 187 243 165 209 179 177 191 197 259 210 236 153 152 117 297 23 18 226 350 19 24 107 109 153 179 255 213 186 167 134 139 219 236 243
331 15 212 121 78 175 189 227 293 295 305 268 187 188 169 204 175 174 206 223 194 147 139 193 133 131 218 267 127 145 109 112 109 299 180 159 277 254 212 174 187 198 213 215 187
339 273 322 96 150 252 271 266 268 284 286 282 257 136 195 185 152 167 131 342 122 101 147 176 22 41 351 349 11 75 65 144 125 89 130 130 266 31 45 25 70 93 110 152 105
337 16 335 38 167 161 292 287 291 311 288 241 325 60 7 51 21 164 126 67 37 86 95 80 86 140 173 216 215 3 63 66 98 75 286 294 51 24 86 70 60 79 131 124 130
169 256 219 254 287 258 138 303 306 307 294 44 19 24 43 39 47 38 54 57 22 37 59 95 97 87 238 84 84 221 351 61 87 191 114 300 101 115 134 132 130 109 114 117 135
7 35 345 284 257 236 187 248 244 284 254 299 118 12 60 134 145 108 100 83 98 17 71 2 136 111 52 75 144 34 344 12 67 150 80 115 74 295 169 98 49 50 87 115 184
313 332 105 281 323 58 224 274 283 339 311 308 119 94 60 350 152 153 134 156 151 150 100 78 104 68 332 334 66 28 342 78 64 31 117 100 131 45 61 66 53 56 48 43 47